Theta_e
310 310 310 310 310 310 310 310 309 310 309 309 310 309 310 310 310 309 310 309 309 310 310 310 311 312 313 314 314 315 315 316 316 315 316 316 316 316 316 316 317 318 318 317 318 317 317 317 317 317 317 318 318 319 320 322 321 321 326 325 324 327 326 329 328 319 321 324 319 316 317 318 318 318 317 318 317 317 317 317 318 317 317 317 317 316 317 317
310 310 310 310 310 310 310 310 310 310 309 309 309 310 309 309 310 310 310 310 310 310 310 310 310 310 311 312 313 314 314 314 315 316 316 316 316 316 316 316 316 317 318 318 319 319 319 319 318 317 317 318 319 320 321 322 320 322 329 325 326 331 326 323 321 318 319 319 317 317 317 318 318 317 317 318 317 316 316 316 316 317 317 316 317 316 316 316
310 310 310 310 310 310 310 310 310 310 310 310 309 310 310 310 310 310 310 310 310 310 310 310 310 310 310 311 312 312 313 313 314 315 316 317 317 316 316 316 315 316 318 318 318 319 319 319 318 318 317 318 319 321 322 322 321 321 324 327 332 330 322 320 319 318 318 318 318 317 317 317 317 317 316 316 317 316 316 316 315 316 316 316 316 316 316 316
310 310 310 310 310 310 310 310 311 310 310 310 310 310 310 310 310 310 311 311 311 310 311 310 310 310 310 310 310 311 312 313 315 317 317 318 318 318 317 316 315 316 317 318 318 318 319 319 319 318 317 318 318 320 322 322 322 321 321 326 329 321 319 321 318 318 318 318 318 317 317 316 316 317 316 316 317 317 316 316 316 316 316 316 316 316 316 315
310 310 310 310 310 310 311 311 311 311 311 311 311 311 311 311 311 311 312 311 312 312 312 312 311 311 311 311 310 311 311 314 320 320 317 317 317 316 317 317 316 315 316 317 318 318 318 318 319 318 318 318 317 320 322 321 321 321 319 320 320 318 319 320 318 318 318 317 317 316 316 316 316 316 316 316 317 317 316 317 317 317 317 316 316 316 316 315
310 310 310 310 311 311 311 311 312 311 312 312 311 312 311 312 312 312 312 312 313 313 313 313 313 313 312 312 311 311 311 314 318 318 315 314 315 315 315 316 316 315 315 316 318 317 317 317 318 318 317 317 318 320 321 321 321 322 321 318 318 318 318 319 318 317 317 317 316 315 316 315 315 316 316 316 316 317 316 317 317 317 317 317 316 316 316 316
310 310 310 310 311 311 311 311 312 312 312 312 312 312 312 312 312 312 313 313 313 313 314 314 314 314 313 313 312 312 312 313 314 315 315 315 316 317 315 315 316 315 315 315 316 318 318 317 318 318 318 318 318 319 319 319 319 322 322 318 318 319 317 318 317 317 317 317 316 315 315 314 315 316 316 315 316 317 317 317 317 317 317 316 317 316 316 316
310 310 310 310 310 311 311 311 311 312 312 312 313 313 312 313 312 313 313 313 314 314 314 314 314 314 313 313 313 313 314 315 317 318 318 317 317 316 315 315 315 315 314 314 315 317 317 317 318 318 318 318 318 318 318 318 318 320 321 318 317 318 317 318 317 317 317 316 317 315 314 314 315 315 314 315 316 316 316 316 317 317 316 316 316 316 316 316
311 311 311 311 311 311 311 311 311 311 311 312 312 312 312 312 312 313 313 313 313 314 314 314 314 314 314 313 313 314 316 318 320 319 318 317 316 314 314 315 315 314 313 314 314 315 317 317 317 318 318 318 318 318 317 318 319 318 318 317 315 316 317 317 317 316 316 316 316 315 314 314 314 314 314 316 316 316 316 316 316 316 316 316 316 316 316 316
313 313 313 312 312 312 312 312 312 312 312 312 312 312 312 312 312 312 312 312 313 313 314 314 314 314 313 313 314 316 317 318 318 317 317 316 315 314 313 314 315 314 313 313 314 314 316 316 317 318 318 318 317 317 317 318 319 317 316 316 315 315 316 316 316 316 316 315 315 316 316 314 313 314 315 316 316 316 316 316 316 316 315 316 316 316 316 316
313 314 314 314 314 314 314 314 314 313 313 313 313 313 313 312 313 312 313 312 312 313 313 313 313 313 313 313 314 316 316 316 316 315 316 315 315 315 314 314 314 315 314 313 313 314 314 316 316 317 317 317 317 317 317 316 316 316 315 316 316 315 315 316 316 316 315 315 315 315 315 314 313 314 315 316 316 315 316 316 316 316 316 316 316 316 316 316
311 312 312 312 313 313 313 314 314 314 314 314 314 314 314 314 314 314 314 313 313 313 313 313 313 313 313 312 313 315 315 315 316 315 315 315 315 315 314 314 313 315 315 314 313 313 314 315 315 317 317 317 317 316 316 316 316 316 315 317 317 315 315 316 315 315 315 315 315 314 315 316 314 314 315 317 317 315 315 315 316 316 316 316 316 316 316 316
311 311 311 311 311 311 311 311 312 312 313 313 314 314 314 314 314 315 315 314 314 314 314 313 313 313 313 313 314 316 315 315 315 316 315 315 315 315 315 314 313 314 315 316 315 314 314 315 315 315 316 316 317 316 316 315 315 316 315 316 316 316 317 316 315 316 314 314 315 314 317 318 316 315 315 317 317 315 314 314 315 315 316 316 316 316 316 316
314 313 313 313 312 312 312 311 311 311 311 312 312 312 312 313 313 314 314 314 315 314 314 314 313 313 312 314 315 315 315 315 316 316 316 316 315 315 315 314 313 314 315 316 316 315 314 316 315 315 314 316 316 316 316 316 315 316 315 316 317 317 319 317 314 316 315 314 314 315 317 318 317 315 315 316 316 315 314 314 315 315 315 316 316 316 316 316
315 316 316 315 315 315 314 314 313 313 313 313 312 312 312 311 311 311 312 313 313 313 314 314 313 313 313 314 315 316 316 316 316 316 316 316 315 315 314 314 313 314 315 315 315 314 313 314 314 314 314 315 315 316 318 319 318 317 316 319 321 319 318 318 314 314 316 315 312 315 317 316 316 316 315 316 316 315 313 314 315 315 315 315 315 316 316 316
315 315 315 316 316 316 316 316 316 316 316 315 315 315 315 314 313 312 311 310 310 311 312 313 313 314 314 314 316 317 317 317 317 316 316 316 315 315 314 314 314 314 314 314 315 314 312 312 313 314 315 315 316 317 318 320 322 319 317 318 321 320 317 318 318 314 314 315 312 314 317 317 317 316 316 316 315 315 313 314 315 315 315 316 316 316 316 316
314 314 314 314 315 315 315 315 316 317 318 318 318 318 317 317 317 315 313 310 309 310 310 314 316 315 315 315 316 316 316 317 316 316 316 316 315 315 314 314 314 314 314 313 313 312 313 313 314 316 316 315 318 319 319 320 321 320 318 318 318 319 316 318 322 315 311 315 314 314 315 316 318 316 315 316 316 315 313 313 315 316 316 316 316 316 316 316
315 314 314 314 314 314 314 314 314 315 316 317 317 317 318 318 317 317 315 311 310 311 311 314 317 315 315 316 316 316 316 316 317 316 316 315 315 314 314 314 314 314 313 313 313 313 313 314 315 318 318 316 316 318 319 319 317 319 320 320 319 319 317 317 320 316 313 315 315 314 314 313 314 314 313 315 315 314 313 314 315 316 317 316 317 316 316 316
314 314 315 315 315 315 314 314 313 313 314 313 314 314 314 315 316 316 316 313 312 314 315 315 316 316 316 317 316 316 316 317 317 316 315 315 314 314 314 314 314 314 313 315 315 313 313 314 316 319 319 317 316 315 317 316 315 317 319 319 318 318 316 315 316 317 315 315 315 315 314 313 313 313 312 313 314 313 313 314 315 316 317 317 316 316 316 316
314 314 314 314 315 314 314 314 313 313 313 313 313 312 312 315 316 316 316 314 314 315 315 315 316 316 316 316 316 317 316 316 316 316 315 315 314 314 314 314 314 314 314 319 319 314 313 316 318 320 318 316 315 314 315 315 314 315 316 316 316 316 315 315 316 317 315 315 317 316 315 314 314 314 313 312 313 313 311 312 313 314 315 315 315 316 315 315
316 315 314 314 313 313 313 312 312 313 312 313 313 312 313 314 314 314 314 314 314 314 314 313 313 314 315 316 316 316 317 317 316 316 315 315 314 314 314 314 315 315 314 316 318 315 315 317 317 318 316 315 315 315 314 314 314 315 315 315 316 316 316 315 316 318 315 315 317 316 316 314 314 314 314 313 313 313 312 312 312 313 314 315 315 315 316 316
318 316 315 314 313 312 312 311 311 311 311 312 312 311 312 313 313 312 311 312 314 313 313 312 311 313 313 314 315 316 316 316 316 315 315 315 314 314 313 314 316 317 315 314 315 317 317 317 316 315 314 315 315 315 315 315 315 315 316 316 317 317 316 315 317 319 315 315 319 319 316 314 314 314 313 313 313 313 314 314 314 314 314 314 315 315 315 316
320 318 317 316 315 313 312 311 310 311 310 311 311 311 311 311 311 310 310 312 314 312 312 313 312 313 312 312 314 316 316 315 315 315 315 315 313 313 312 312 314 316 317 316 315 316 317 317 315 313 314 315 315 315 316 315 315 317 316 317 317 316 317 316 317 320 316 315 321 320 316 314 314 314 314 313 313 313 315 315 316 316 315 315 315 316 316 315
322 320 319 318 317 316 314 313 312 311 310 309 311 312 311 310 310 310 310 313 314 312 312 314 312 312 313 313 313 314 315 314 314 314 315 315 313 313 312 312 313 315 315 315 315 315 316 316 316 315 316 317 316 316 317 316 315 316 317 317 317 317 317 316 316 319 318 318 318 317 316 316 315 315 315 315 314 314 314 314 315 315 316 316 316 316 316 316
324 322 320 319 318 318 316 314 313 312 310 309 311 313 313 311 310 310 311 314 316 313 313 314 312 312 312 313 312 313 314 313 313 314 314 314 314 313 312 312 313 314 314 314 315 314 313 314 316 319 319 318 317 317 318 318 316 316 318 319 317 317 318 317 317 317 319 323 319 316 319 319 319 319 316 316 316 315 314 314 314 314 315 316 315 317 317 316
324 324 322 320 319 318 318 317 315 313 312 311 310 310 312 311 309 310 311 315 318 315 314 314 314 314 313 313 313 312 313 312 313 313 313 314 314 313 313 313 313 313 313 314 314 314 314 314 317 321 321 320 319 319 320 320 317 316 321 323 320 319 319 319 320 319 323 327 320 317 321 321 320 321 318 317 318 318 317 316 315 312 314 316 316 317 317 316
324 324 324 323 320 319 319 318 316 315 314 312 309 308 311 310 309 310 312 316 318 316 316 315 314 315 314 313 313 313 313 314 313 313 313 314 314 314 314 314 313 313 313 314 315 316 316 315 318 320 319 321 320 318 321 321 318 318 324 329 324 322 322 321 322 323 325 324 318 317 321 320 319 319 319 319 320 320 319 319 317 313 313 316 317 317 316 317
324 324 324 324 323 321 319 319 318 316 315 314 310 308 311 310 309 310 313 316 318 318 317 315 313 314 314 313 313 312 312 312 314 314 313 313 313 314 314 313 314 314 315 315 316 318 319 319 321 321 319 320 318 317 321 321 319 319 322 326 325 323 324 322 321 323 324 321 319 319 319 319 319 317 317 317 317 318 317 317 318 314 313 315 316 317 316 317
325 325 325 325 324 323 320 320 319 317 316 316 311 309 310 310 309 310 314 316 317 317 317 315 315 314 313 313 313 312 311 311 313 314 312 313 313 313 313 312 312 313 313 314 316 317 319 318 317 321 321 319 320 323 324 323 321 318 319 323 326 326 323 320 319 320 322 320 319 320 318 318 319 317 317 317 315 317 316 316 317 314 313 315 316 317 316 317
325 325 325 324 324 324 322 321 320 318 317 316 311 310 310 310 311 313 315 315 315 316 314 312 314 313 313 314 314 312 311 310 310 311 312 312 312 311 312 312 311 315 316 315 316 315 314 312 312 317 318 317 322 320 315 318 318 315 319 324 327 328 325 324 323 320 319 319 319 321 319 317 319 318 318 317 316 317 315 315 315 313 312 314 315 316 316 317
323 324 324 324 324 324 323 322 321 319 318 315 311 309 310 312 315 316 317 315 315 317 314 313 313 313 313 316 316 313 312 311 309 311 313 312 312 311 311 312 312 317 319 316 316 315 312 312 315 317 313 313 320 317 311 313 314 317 324 324 324 328 326 323 322 318 318 319 319 320 319 317 317 318 318 317 315 316 316 316 317 316 314 313 315 315 316 317
320 321 322 323 323 323 323 322 322 320 318 316 312 309 312 316 316 316 316 316 318 319 317 318 316 315 315 315 316 315 314 313 310 311 314 314 314 312 311 315 315 316 319 318 317 316 315 315 315 315 312 313 319 319 317 317 315 318 324 321 320 322 321 320 320 319 319 319 318 318 318 316 316 316 317 316 316 317 316 315 315 315 314 312 315 316 316 317
319 319 321 322 322 323 322 322 322 320 319 317 312 310 315 318 318 317 315 316 320 319 319 322 319 317 317 315 319 319 315 315 312 310 313 314 314 313 313 315 316 316 319 321 318 318 320 318 314 314 314 314 317 318 318 318 317 317 319 320 320 319 319 320 322 322 319 319 319 317 317 318 317 319 318 316 317 317 314 313 313 313 315 315 316 317 316 316
319 319 320 321 322 322 323 322 322 321 319 316 313 314 316 318 320 319 316 316 318 317 319 322 319 317 317 318 323 321 315 318 316 311 313 314 314 316 316 314 314 315 317 318 319 320 322 320 316 316 316 315 315 315 317 320 317 314 317 319 318 322 326 323 323 323 320 324 324 316 318 321 318 320 323 317 314 314 312 313 314 314 316 316 314 315 315 314
319 319 320 321 322 322 322 322 322 321 319 315 314 315 316 319 320 318 318 319 317 316 318 319 319 319 319 321 325 322 316 319 318 314 315 315 315 319 319 315 312 314 316 317 320 320 318 319 319 315 314 314 314 314 316 320 319 315 317 317 314 322 327 320 320 321 318 322 322 315 319 323 317 317 320 317 315 314 312 312 312 312 315 315 313 314 315 314
318 319 319 321 322 322 322 322 321 321 318 313 313 315 316 320 322 319 318 317 314 315 316 317 320 321 322 323 325 323 317 318 319 316 316 314 315 318 318 315 313 313 314 316 321 320 316 321 321 312 311 312 311 313 314 316 319 316 316 316 315 319 321 317 320 321 316 317 319 317 319 319 317 316 316 315 316 316 314 313 311 311 313 313 312 313 314 314
318 318 318 319 319 320 321 321 321 320 316 313 314 316 316 318 319 318 318 315 313 314 315 316 319 321 323 322 324 324 320 319 318 317 318 316 315 316 316 316 314 312 313 314 318 322 318 318 320 314 314 312 305 308 312 311 314 317 318 317 316 317 319 320 322 322 319 318 319 318 318 316 316 317 317 318 317 316 315 315 313 312 311 311 311 312 313 314
316 317 317 318 318 319 319 320 320 318 314 312 314 316 317 317 316 315 316 314 315 316 316 316 317 319 321 319 321 324 321 319 319 318 319 319 317 317 316 317 315 312 312 312 315 321 319 316 318 315 316 313 307 309 315 311 309 315 317 316 317 320 321 320 320 320 319 318 318 318 317 315 315 315 316 317 318 318 317 315 314 313 312 310 310 312 313 314
314 314 316 317 318 319 319 320 319 316 313 312 314 315 316 317 315 313 314 314 314 315 315 316 317 316 317 317 318 320 319 319 320 319 319 319 318 318 316 316 317 314 311 312 314 317 317 316 317 315 312 313 311 313 318 315 311 312 313 314 316 318 321 321 320 320 319 317 317 318 317 316 317 318 317 316 317 316 315 314 314 314 312 311 311 312 313 313
311 313 315 317 318 318 319 319 316 313 313 314 315 315 315 315 314 313 314 314 313 313 313 315 316 315 316 316 315 315 317 319 320 319 319 318 317 318 317 316 318 318 313 312 313 315 316 317 316 314 312 313 313 313 316 317 315 314 314 316 314 313 317 319 317 317 318 316 315 316 316 316 317 318 319 319 318 316 315 315 315 313 311 311 312 313 313 313
310 312 314 316 316 317 318 316 313 312 314 315 315 315 314 314 314 313 313 313 313 313 313 313 315 314 315 316 316 315 315 316 317 317 318 317 316 316 317 315 316 318 315 314 315 315 317 319 317 315 314 314 315 315 314 315 317 315 314 316 314 313 315 316 316 316 316 315 315 316 316 316 317 318 318 320 322 320 317 317 316 312 310 311 313 313 313 313
311 312 314 315 315 316 317 314 311 311 312 314 314 314 313 313 314 313 313 313 314 314 314 314 315 314 315 315 316 316 315 315 315 316 315 316 315 315 315 313 312 314 315 317 318 315 317 319 317 316 316 316 317 316 314 314 315 315 314 315 315 314 314 316 316 316 315 315 315 315 316 315 316 319 319 318 321 319 313 313 316 312 309 313 315 313 313 314
309 311 313 314 314 315 316 314 312 312 311 311 312 312 312 313 314 314 314 314 314 315 315 316 315 315 316 316 316 316 316 315 315 315 315 315 315 314 314 313 313 313 314 317 319 315 315 317 316 315 317 317 318 317 313 311 311 313 314 314 314 313 313 315 315 314 315 317 316 315 316 316 316 318 318 317 317 314 310 310 313 311 309 312 313 312 314 314
307 309 310 311 313 314 315 315 314 313 312 311 311 311 312 311 312 314 314 314 315 315 315 316 316 316 316 316 316 316 317 317 316 316 316 315 315 314 313 313 314 314 314 315 316 314 314 315 316 317 318 318 318 317 314 311 311 313 315 314 313 313 313 313 314 313 314 315 315 315 315 315 315 316 317 317 316 315 312 310 309 309 309 311 312 313 314 314
307 307 308 309 312 313 314 315 315 314 313 312 312 312 312 311 311 312 313 313 314 314 315 315 315 315 315 316 315 315 316 317 316 316 316 316 315 313 313 313 313 313 313 313 313 313 313 314 314 316 317 318 317 317 317 317 313 312 314 314 313 314 313 312 313 313 313 314 314 314 314 314 313 313 314 314 313 314 312 309 309 310 310 311 312 312 313 313
306 307 309 310 311 312 313 313 314 314 314 313 312 312 312 312 312 311 311 312 313 313 313 314 313 313 315 315 315 315 315 315 315 316 316 316 315 313 312 312 312 312 313 313 312 313 313 314 314 314 315 317 316 315 317 318 314 312 314 315 313 314 313 312 313 314 314 314 314 314 314 314 314 313 312 312 312 312 311 310 310 310 310 312 311 312 312 312
304 306 309 310 310 310 312 313 313 313 312 312 313 313 313 312 312 312 312 312 313 312 313 313 313 314 315 315 315 315 315 315 315 315 314 314 314 313 311 310 310 311 311 311 311 313 312 313 314 314 313 315 315 314 314 315 313 313 314 314 313 313 312 313 313 313 313 314 315 314 315 315 314 313 313 312 312 312 312 312 311 310 311 312 311 311 312 311
303 304 305 306 305 307 310 310 308 307 307 308 310 312 313 313 313 313 312 312 312 312 313 313 313 314 314 314 315 315 315 315 315 314 314 313 313 313 312 311 310 310 310 309 310 313 313 313 314 314 313 314 313 313 313 313 313 313 313 313 313 313 313 313 313 312 313 314 314 314 314 315 314 314 313 313 313 312 312 311 311 310 311 310 310 310 310 310
301 301 301 302 302 304 305 304 303 304 304 305 306 308 310 311 311 311 311 312 312 312 313 313 314 314 314 313 314 314 314 315 315 314 314 313 313 313 312 313 312 310 310 310 311 312 313 313 313 313 313 313 313 313 312 312 312 312 312 312 312 312 312 312 312 312 312 312 312 313 313 313 313 313 313 312 312 312 311 311 311 311 310 310 310 310 309 310
299 300 300 300 300 301 301 300 301 303 304 304 305 307 308 309 310 310 309 311 311 312 312 313 312 312 312 312 313 313 314 314 314 314 314 313 313 313 312 313 314 311 309 310 311 310 311 313 313 313 313 313 313 312 312 312 312 313 313 312 312 312 312 312 312 312 312 312 312 312 312 312 311 311 312 311 311 311 311 311 311 311 311 311 310 310 310 310
297 298 299 299 299 299 300 300 301 301 302 303 305 307 308 308 307 306 306 308 310 311 311 309 307 306 306 307 310 310 309 308 307 308 309 309 311 312 312 312 313 312 309 309 310 309 310 312 313 312 313 313 312 312 312 312 312 312 312 312 312 312 312 312 312 312 312 313 312 312 312 312 311 311 311 311 311 311 311 311 311 311 311 311 310 310 310 310
296 296 297 297 298 299 299 299 299 300 300 301 302 303 304 304 303 303 304 305 306 306 305 304 303 303 304 305 306 305 302 302 303 304 304 306 307 309 310 310 311 312 311 309 310 309 309 311 312 313 313 313 313 313 312 312 312 312 313 313 312 313 312 312 313 312 312 312 312 313 313 312 311 311 311 311 311 311 311 311 311 311 311 311 310 310 310 310
Wind_Speed
9 9 9 9 9 9 10 10 10 11 11 11 11 11 11 10 10 10 10 10 10 10 10 10 10 10 10 11 11 11 12 13 14 16 18 14 11 12 11 9 7 6 5 4 3 1 1 1 1 2 3 4 4 6 5 7 7 3 2 2 3 3 4 5 4 4 3 3 3 6 9 6 3 6 9 7 10 12 10 14 15 15 19 19 18 17 15 14
10 10 10 10 10 10 10 10 10 11 11 11 11 11 11 11 11 11 11 10 10 11 11 11 11 11 11 11 11 12 13 14 16 18 18 15 15 15 13 11 9 7 6 5 4 2 1 1 2 2 5 6 5 5 5 6 7 5 2 2 4 5 5 5 4 5 2 2 5 6 9 9 6 6 7 5 7 10 10 13 15 16 18 21 22 21 20 19
10 10 10 10 10 10 10 10 10 10 11 11 11 12 12 12 12 11 11 11 11 11 11 12 12 12 12 11 12 12 13 15 17 17 13 11 14 15 15 13 10 9 8 7 6 4 3 1 4 5 7 9 6 6 6 5 6 7 5 2 7 7 6 10 9 5 3 3 3 2 5 9 8 7 7 6 7 7 10 14 14 19 24 24 24 24 23 23
10 10 10 10 10 10 10 10 10 10 10 11 11 11 12 12 12 12 12 12 12 12 12 12 12 12 12 12 12 12 13 15 14 9 7 5 5 9 13 13 12 11 10 9 7 5 4 2 5 5 7 9 8 9 8 8 7 6 7 5 7 4 4 12 12 7 6 5 4 4 3 6 9 9 9 7 5 5 14 23 21 23 28 28 28 27 26 26
11 11 11 10 10 10 10 11 10 11 11 11 11 11 12 12 12 12 13 13 13 13 14 14 14 14 14 14 13 12 11 8 4 2 6 9 10 9 9 12 14 13 13 12 9 7 5 4 4 4 5 7 6 6 7 14 12 4 7 12 13 9 6 13 14 9 9 7 6 6 4 7 8 9 14 12 8 12 19 23 21 20 24 27 29 29 29 30
12 12 12 12 11 11 11 11 11 12 11 12 12 12 13 12 13 13 13 14 14 14 15 15 15 15 15 15 13 12 6 3 5 7 11 16 16 13 9 10 13 15 15 14 11 9 8 5 4 5 5 5 6 6 9 17 16 6 8 12 18 17 10 16 18 13 13 9 7 6 6 9 6 9 16 18 22 28 27 21 15 12 14 20 27 30 31 32
13 13 13 13 13 13 13 12 13 13 13 13 12 13 13 14 14 14 14 15 15 15 16 16 16 16 16 16 14 11 8 10 14 14 15 16 14 14 10 10 12 15 16 15 14 11 9 6 6 8 5 4 7 8 12 16 16 11 7 8 15 18 16 20 20 16 14 11 12 10 8 10 9 10 12 21 35 36 31 27 22 18 16 16 22 30 33 33
15 15 15 15 15 15 14 14 15 14 14 14 13 13 14 14 14 15 15 15 16 16 17 17 17 16 16 16 14 10 12 14 14 11 12 12 11 13 11 10 11 15 16 15 15 12 10 8 9 10 5 5 7 7 9 8 8 10 8 8 11 15 17 19 18 17 16 16 17 12 12 15 17 13 12 28 42 36 31 30 28 26 25 23 22 26 30 32
16 16 16 16 16 16 16 16 16 16 16 16 15 15 15 15 15 15 15 16 17 16 18 18 17 17 16 15 12 9 14 15 12 11 11 11 12 12 11 10 11 15 16 15 14 13 12 10 10 9 5 6 8 9 8 4 4 7 9 10 9 12 16 18 19 20 18 18 16 9 13 18 19 13 15 39 45 35 32 31 31 28 27 29 28 28 29 31
17 18 17 17 18 17 18 18 18 18 18 18 18 17 17 17 17 17 16 17 17 17 18 18 18 17 15 15 8 6 15 16 14 15 14 13 14 14 12 11 11 14 15 15 14 15 15 12 10 8 8 8 7 9 8 4 3 4 8 11 13 16 19 20 21 25 21 18 17 11 11 15 14 5 13 39 34 20 22 23 27 28 29 31 32 32 32 33
19 20 20 20 20 20 20 20 20 20 20 20 19 19 19 19 19 18 18 18 18 18 18 18 18 17 16 16 9 10 18 20 18 19 17 17 18 16 15 12 12 14 16 17 15 15 15 14 12 9 7 6 5 9 10 8 5 8 10 12 17 15 19 22 20 26 19 14 19 15 9 13 8 4 19 42 29 12 15 16 19 24 29 31 32 34 33 35
20 21 21 21 21 21 22 22 22 22 22 22 22 21 21 21 21 21 20 19 19 19 19 18 18 17 15 15 18 20 22 22 19 19 18 19 20 19 17 14 14 14 16 18 17 16 15 15 14 12 9 6 3 5 6 7 7 11 7 7 14 8 13 23 20 24 16 8 16 10 4 12 7 13 34 46 36 26 23 22 22 22 26 29 32 35 36 37
20 21 21 21 21 21 21 22 22 23 24 24 24 23 23 24 23 23 22 21 21 20 20 18 18 18 14 16 25 25 22 21 21 20 20 20 21 21 19 17 15 15 16 17 17 17 15 15 15 15 15 10 5 5 7 9 9 10 3 2 9 6 8 17 14 18 14 8 12 11 1 11 9 21 37 38 35 32 27 28 30 27 27 27 30 34 36 38
21 21 21 22 22 22 22 22 22 23 23 23 23 23 23 24 24 24 24 23 23 22 21 19 18 16 13 18 26 25 23 23 22 21 21 21 22 22 21 18 16 16 16 16 16 17 16 14 13 13 14 13 10 9 8 9 6 5 2 2 4 3 7 11 5 7 6 6 16 15 3 12 12 20 29 27 26 27 27 30 32 31 31 30 30 33 35 37
21 21 21 22 23 23 23 23 24 24 24 25 24 23 23 23 24 24 23 23 24 23 22 19 17 14 12 19 27 24 22 22 21 19 19 20 21 21 20 17 16 16 15 15 15 16 16 14 12 10 9 11 10 6 4 4 4 1 1 5 3 4 8 11 7 8 7 5 15 14 3 12 14 21 28 26 23 25 25 30 31 30 32 32 33 34 35 36
20 21 21 22 23 23 24 24 25 25 26 26 25 24 23 23 24 24 22 22 21 21 20 16 16 13 8 14 21 20 20 21 19 18 18 18 19 18 16 14 14 14 13 13 12 13 13 11 10 9 7 6 3 2 2 4 5 1 4 6 5 5 6 7 8 7 10 6 9 11 6 8 10 14 21 18 20 25 24 27 31 31 32 32 34 36 37 37
18 19 20 21 22 23 23 24 25 26 27 27 27 26 25 24 24 24 22 21 19 18 16 12 10 10 10 14 19 23 24 23 20 18 17 15 16 16 14 13 12 11 10 9 10 10 9 9 7 5 6 4 3 5 2 3 6 4 3 5 6 7 5 6 7 3 8 8 7 11 8 12 13 11 14 12 13 18 21 26 30 31 32 32 34 36 38 39
17 18 19 19 20 21 21 22 24 26 27 27 28 27 26 25 24 24 22 21 17 12 10 10 7 3 10 15 17 21 21 18 15 14 13 13 13 12 12 11 10 8 7 6 8 9 9 7 6 2 3 3 3 5 4 7 8 5 5 4 5 7 6 9 8 1 7 6 7 9 9 16 19 15 20 26 23 16 18 24 27 30 32 33 35 36 38 40
17 18 19 19 20 20 20 21 23 24 25 26 25 25 25 24 21 20 17 15 12 7 5 11 14 6 8 11 10 12 12 11 11 12 14 14 12 11 12 10 9 9 7 4 5 10 11 4 3 3 4 7 7 8 11 13 11 8 8 6 6 7 8 11 11 6 9 5 6 10 12 15 19 18 20 31 32 23 21 22 25 29 32 35 37 38 40 41
16 17 18 19 20 20 20 21 22 23 24 24 24 22 18 14 10 9 9 12 16 15 14 15 18 17 14 12 12 13 14 14 15 17 16 14 12 12 14 12 9 9 7 5 4 9 12 5 3 7 10 12 10 12 16 14 11 10 9 9 9 8 10 13 12 8 8 6 7 13 15 15 18 20 18 25 26 20 20 20 24 30 34 38 39 39 41 44
16 17 18 18 19 19 19 20 21 22 22 22 22 18 11 6 4 6 9 14 21 24 26 24 22 25 22 18 17 17 17 17 20 21 16 14 13 11 14 14 7 6 8 7 3 4 9 7 8 13 16 13 10 12 13 12 11 11 10 10 10 8 12 14 10 7 7 5 8 11 14 15 17 19 18 18 14 14 20 20 23 30 34 38 39 40 44 46
16 16 17 18 18 18 18 19 20 19 19 17 17 13 7 7 8 11 11 13 22 27 28 27 27 30 29 25 24 22 19 17 21 23 19 17 18 14 13 13 7 5 6 5 2 3 5 7 12 17 14 9 8 8 9 11 11 10 9 8 8 7 10 12 8 6 4 5 7 9 12 13 15 18 17 14 11 16 28 28 29 33 32 34 38 41 44 46
16 16 17 17 17 18 18 19 18 16 16 15 13 10 7 8 9 12 10 9 18 24 26 29 30 33 32 30 30 25 22 22 22 24 24 23 22 19 15 12 8 4 6 8 8 6 6 8 14 16 10 9 11 9 8 9 8 8 9 8 9 7 7 9 6 4 3 4 5 6 9 9 9 14 14 18 21 23 30 34 37 39 36 37 42 44 45 43
17 17 18 18 17 17 18 19 16 14 16 15 11 9 8 7 6 9 10 8 9 13 22 29 29 32 34 31 29 28 29 29 24 21 27 29 23 17 14 12 7 4 7 13 14 13 11 8 12 13 11 12 13 10 8 7 8 11 11 9 11 10 11 12 7 4 3 4 4 5 10 8 8 14 15 17 21 21 26 31 33 39 42 44 45 46 48 46
18 18 19 19 18 17 18 17 14 16 16 12 10 8 8 7 5 7 9 7 6 6 12 18 20 25 30 29 27 27 24 24 24 23 25 30 27 14 7 11 9 7 12 13 12 12 13 10 11 10 11 13 12 9 8 8 9 11 9 11 14 13 13 13 9 7 5 6 4 2 8 8 8 14 15 11 9 11 16 19 23 34 41 42 43 45 47 46
19 19 19 20 19 18 17 15 14 17 14 10 11 9 8 6 4 7 7 3 4 3 3 7 9 10 14 19 25 21 10 12 21 25 23 24 30 19 5 7 8 7 9 8 6 5 8 11 11 10 11 12 9 8 8 11 9 9 6 11 13 11 10 11 7 4 3 5 4 3 3 8 5 8 11 8 7 10 10 10 16 26 33 36 40 42 43 40
20 20 20 21 21 19 16 14 14 15 12 11 12 9 7 5 3 5 5 3 4 3 5 6 7 6 6 10 20 17 3 5 9 16 20 21 26 23 10 5 5 5 6 4 4 4 5 8 10 12 12 8 8 9 9 11 8 7 4 8 9 9 9 9 6 5 4 4 4 2 3 7 11 7 9 10 10 11 11 10 12 18 27 35 38 40 39 38
20 21 22 22 22 21 18 15 14 12 11 12 12 8 5 2 1 3 3 3 4 4 4 5 6 6 6 11 22 18 2 1 2 7 18 21 20 17 11 8 5 3 5 6 6 5 3 7 10 12 9 7 9 10 9 11 7 6 4 6 6 6 6 3 3 5 2 4 5 5 6 4 14 7 9 12 12 11 13 14 13 15 25 34 38 40 39 37
18 19 22 22 22 23 20 17 14 11 10 11 11 7 2 1 1 4 2 4 3 2 2 5 6 5 6 10 16 16 4 2 1 4 12 16 17 11 4 6 5 3 4 5 8 6 1 4 7 8 7 8 8 4 6 10 7 4 5 4 4 3 2 4 1 1 3 5 7 7 8 4 13 7 7 7 8 10 12 13 13 16 25 35 39 41 39 36
18 18 20 22 22 22 22 19 15 11 9 10 10 4 1 3 3 3 3 5 2 1 2 4 4 4 8 6 5 11 6 1 2 4 7 8 12 8 1 1 2 2 4 5 7 8 2 2 2 4 6 5 4 3 2 3 3 3 7 5 6 5 5 4 1 4 2 8 6 10 12 8 9 6 5 5 6 11 11 9 11 13 20 33 38 38 36 35
22 20 20 23 23 22 21 21 17 12 6 7 7 2 5 3 4 2 7 3 1 2 2 2 2 3 7 5 2 5 4 1 2 6 5 3 5 4 1 1 1 2 4 5 7 8 4 1 1 3 4 5 7 4 3 4 3 5 5 4 3 5 4 5 4 4 2 10 5 13 15 12 10 6 2 3 5 10 11 9 11 11 17 30 36 36 36 35
26 24 21 22 23 22 21 21 19 13 6 4 3 4 4 2 1 6 5 3 1 3 2 3 3 2 4 3 2 2 3 2 4 6 5 3 3 4 3 4 4 2 3 5 5 5 6 7 5 1 2 7 6 3 4 6 3 5 5 5 1 4 3 3 3 1 5 8 4 9 9 9 13 8 4 8 6 7 9 9 14 14 17 30 34 32 34 35
26 26 24 22 23 23 22 21 19 13 8 3 3 5 4 1 5 6 3 1 3 3 2 2 4 4 3 1 2 4 3 2 4 5 3 3 3 4 4 5 4 2 4 5 2 3 5 5 5 3 3 9 10 5 3 3 3 7 6 6 5 3 1 3 4 3 6 8 5 4 5 5 8 5 9 15 13 12 13 15 22 23 22 30 34 32 31 32
24 24 25 24 24 23 22 22 20 14 10 6 7 6 4 4 5 1 2 5 5 3 1 1 2 3 3 3 5 5 3 4 5 5 3 3 2 4 5 7 7 3 1 2 2 3 4 8 6 8 4 11 14 13 11 5 5 7 5 6 5 5 5 4 5 5 5 7 5 3 4 4 3 2 9 13 14 16 18 24 29 30 28 29 31 31 29 28
21 21 21 23 24 23 22 24 23 17 12 11 8 4 3 6 5 1 3 5 4 5 5 4 2 3 4 4 4 4 6 5 3 6 4 4 4 4 4 6 9 6 3 3 3 4 5 10 8 7 3 12 13 12 9 7 1 4 4 4 4 5 6 4 5 5 2 4 6 3 4 6 4 7 9 8 10 11 15 22 22 25 30 29 28 30 29 27
22 20 20 23 25 24 22 24 25 21 17 14 7 2 7 6 4 4 3 4 2 2 6 7 0 3 4 3 3 5 6 4 2 4 3 4 5 6 4 4 9 11 8 6 3 3 4 7 3 3 2 5 4 3 5 5 3 3 4 4 4 4 6 4 5 2 2 5 7 3 5 7 5 9 9 7 10 9 9 13 13 18 29 29 28 30 29 26
22 22 23 25 26 24 22 24 26 26 22 16 5 6 7 6 7 7 4 2 2 2 3 4 2 3 3 2 3 4 4 4 3 4 3 3 4 6 6 5 9 15 16 13 5 3 5 6 3 4 1 2 2 3 2 1 3 6 4 6 3 3 2 3 2 3 1 6 7 4 7 9 7 9 4 2 4 8 8 10 11 16 23 23 25 28 27 25
22 22 26 28 26 23 21 22 27 29 22 11 7 10 7 4 7 11 10 6 5 5 3 4 4 4 4 3 3 2 3 3 3 3 3 3 4 6 7 6 8 16 23 20 8 3 3 5 5 3 2 2 3 1 3 4 2 4 3 2 4 2 2 3 3 3 5 7 7 9 11 11 10 9 5 2 6 10 11 12 12 14 15 17 23 27 26 24
21 18 21 23 18 13 15 22 30 30 17 5 8 10 5 4 6 10 12 8 3 4 6 8 7 5 6 8 6 2 3 4 3 2 3 3 4 5 7 6 7 12 22 21 10 5 3 4 6 1 1 1 2 1 4 2 1 2 2 2 1 2 4 3 4 3 5 8 8 10 12 11 9 6 6 9 11 11 11 11 11 12 14 19 26 30 31 29
16 11 13 16 9 4 10 22 29 24 9 4 8 8 4 3 5 10 15 11 5 4 5 6 7 7 7 9 8 4 3 4 3 2 3 3 4 4 4 4 3 6 14 14 9 6 2 4 7 1 1 2 3 5 8 8 6 2 1 3 3 2 2 1 2 2 4 7 7 7 10 12 7 4 6 9 9 10 11 10 10 11 16 24 29 33 35 31
11 7 11 16 11 8 16 23 18 10 4 4 6 7 6 4 3 7 14 14 8 6 5 3 4 5 5 6 6 4 2 3 3 3 3 3 5 4 2 4 4 3 2 3 4 5 2 4 7 3 1 6 9 7 10 12 11 9 7 7 7 6 3 3 7 5 4 5 6 7 10 13 6 4 4 6 6 8 9 10 10 11 19 27 31 37 37 31
9 7 9 12 11 15 23 17 7 6 5 5 5 5 4 4 4 6 10 12 8 6 4 2 3 4 5 6 6 5 4 4 6 5 5 6 8 7 7 11 12 11 6 1 4 5 3 2 5 6 6 8 10 4 7 12 10 7 6 7 7 7 7 8 10 7 3 3 4 6 10 14 7 4 3 4 6 6 8 9 8 12 23 29 32 35 32 29
11 11 12 11 12 20 22 8 4 7 4 4 6 5 5 4 3 5 8 10 8 6 5 3 4 6 7 6 6 5 4 5 7 8 9 9 9 14 20 24 19 11 7 3 4 5 3 0 5 9 5 5 8 5 0 2 3 3 4 4 6 7 8 10 8 5 5 5 6 7 11 14 8 2 3 6 5 7 10 13 13 15 23 28 30 30 27 30
12 16 18 16 16 20 16 4 3 7 4 6 6 7 9 6 4 8 8 7 8 4 4 6 7 9 8 6 6 8 7 7 8 10 10 7 10 18 24 29 24 8 0 2 1 4 4 3 4 7 5 4 6 6 5 2 2 3 4 5 8 9 9 8 4 3 7 10 11 11 10 11 9 4 5 7 5 4 8 12 14 14 17 19 19 21 23 27
8 10 15 18 20 22 19 11 9 6 5 9 9 9 10 6 9 19 17 11 12 8 4 5 7 8 7 6 7 9 11 9 7 7 7 6 8 16 22 27 24 13 10 13 10 2 2 3 3 5 7 6 6 7 7 4 2 1 3 7 10 11 11 10 6 6 10 11 13 13 11 10 11 11 12 13 10 8 8 11 11 11 14 18 18 20 23 24
4 4 7 12 20 27 25 22 19 10 6 9 8 8 12 9 10 19 20 15 16 17 11 6 3 3 5 8 10 11 12 12 10 7 6 7 7 8 16 24 22 20 22 22 19 8 1 4 7 9 10 10 11 12 8 3 2 3 4 8 8 7 8 7 6 9 9 9 11 13 12 13 11 14 19 20 18 15 13 13 13 15 22 28 29 30 30 30
4 4 3 2 10 19 20 20 17 10 5 8 5 5 13 15 9 11 16 14 15 16 11 7 8 8 8 10 12 12 13 13 13 12 11 12 10 7 11 13 13 17 18 14 16 10 2 6 14 17 18 17 16 17 13 9 10 11 10 12 11 9 9 8 9 11 9 9 12 12 12 14 11 13 21 24 24 23 17 13 15 19 25 29 29 28 27 27
6 5 5 3 1 5 8 7 6 5 5 4 3 3 9 14 10 7 9 11 13 12 6 6 12 15 16 16 13 11 11 11 12 14 13 12 11 10 11 11 13 19 14 6 11 9 3 8 15 16 20 21 18 17 17 15 16 16 16 17 18 17 15 14 15 16 14 13 14 12 15 18 16 17 22 25 26 25 21 20 22 25 29 28 24 23 25 26
8 8 8 6 3 6 9 9 10 8 5 4 3 3 4 7 8 7 4 4 6 7 8 10 13 15 18 20 15 12 12 12 13 13 11 12 12 10 9 10 14 18 14 7 7 7 3 6 11 15 19 19 18 19 20 20 20 18 19 19 19 20 20 20 21 21 21 21 20 20 24 24 20 20 22 26 29 29 27 29 30 33 37 35 29 28 31 31
9 7 7 7 5 10 15 13 9 7 5 5 4 4 4 5 7 8 6 5 5 3 6 11 12 10 11 12 14 15 14 14 16 14 10 8 9 7 7 7 7 7 7 6 5 6 7 7 10 12 13 13 17 20 20 21 21 21 22 21 20 22 23 24 22 20 21 23 24 26 26 21 18 19 22 27 31 30 27 28 33 39 44 39 34 37 37 36
10 9 8 8 5 8 11 7 3 3 4 5 4 3 4 5 6 9 8 10 12 7 4 6 10 9 10 11 10 11 12 13 14 15 14 12 10 7 5 5 4 2 2 4 3 4 6 6 7 7 8 9 15 20 22 22 22 22 21 21 23 24 23 22 21 20 21 23 25 24 20 16 17 20 21 23 25 26 24 25 30 40 45 41 36 37 37 36
10 12 11 7 5 7 6 3 2 3 5 5 5 5 6 8 9 9 7 8 11 13 12 11 10 9 9 10 9 12 20 21 20 22 24 23 22 19 16 14 11 8 4 3 2 4 5 5 5 6 7 8 13 18 20 18 15 14 16 23 28 27 25 23 22 23 24 22 19 17 16 17 18 18 19 20 23 24 23 26 31 37 41 41 37 34 35 38
Wind_Direction
338 342 343 345 349 349 351 354 355 357 359 359 0 2 3 4 4 3 1 358 351 345 339 334 327 321 318 317 315 311 306 297 293 285 277 276 275 273 275 283 290 295 305 298 297 282 217 73 298 234 225 258 264 255 241 232 219 190 118 153 240 230 214 211 212 248 204 223 236 206 204 192 233 228 218 240 238 236 229 220 221 220 224 235 243 244 240 231
334 337 338 341 342 343 346 347 350 353 354 355 357 358 359 1 2 3 3 1 358 353 349 342 335 327 320 315 313 313 309 303 296 285 281 280 272 268 268 273 280 277 279 278 278 272 235 49 339 271 224 243 261 249 232 218 202 192 159 166 232 215 222 243 257 265 264 235 208 200 211 207 237 235 212 235 243 232 234 235 228 227 229 234 241 241 241 236
329 332 333 336 336 339 340 341 347 348 351 352 353 354 356 358 358 1 1 0 360 356 354 349 345 339 331 323 316 313 311 308 300 297 302 290 268 262 261 262 264 263 265 268 267 273 286 298 292 275 232 242 254 234 221 203 204 210 196 220 244 226 251 279 293 290 290 273 229 231 225 218 241 233 201 221 253 236 228 237 222 222 230 231 237 236 236 236
322 324 325 328 328 331 332 336 339 341 346 346 348 350 350 353 354 355 355 357 356 354 354 351 349 345 340 333 325 318 317 316 307 315 3 359 302 268 259 256 255 256 255 258 264 274 294 273 262 266 237 244 250 237 226 209 210 199 184 207 241 239 283 279 294 301 285 291 276 287 274 256 256 232 215 215 254 255 235 242 236 234 240 234 233 235 236 237
314 315 316 318 319 322 323 326 329 332 336 337 340 340 341 345 345 346 347 348 348 348 348 347 347 344 340 335 329 321 325 333 322 24 21 353 345 319 282 260 252 252 250 250 257 258 263 260 245 253 246 249 249 237 233 221 215 212 220 227 245 259 285 280 291 295 280 290 281 282 284 275 267 235 231 215 218 247 245 252 254 252 254 245 240 239 237 238
309 309 310 311 311 313 314 317 319 321 324 327 331 330 332 333 335 337 336 338 339 340 339 339 341 339 338 335 331 323 314 297 294 304 311 315 321 320 307 270 252 247 248 245 248 248 253 258 235 243 238 247 247 229 249 238 217 226 254 238 248 253 257 276 284 286 279 278 268 272 269 269 271 256 247 229 234 251 254 257 261 264 266 257 249 242 237 238
304 304 305 305 305 306 307 309 310 311 314 316 319 320 322 322 325 327 326 330 329 331 332 331 333 333 335 332 329 319 276 274 298 301 302 309 312 311 305 276 253 243 244 242 243 241 247 246 232 245 233 242 252 235 261 257 219 216 258 254 256 258 261 275 285 284 273 268 267 267 270 268 254 260 263 248 250 256 257 256 254 258 266 262 248 241 241 243
300 301 302 302 302 303 303 305 304 304 305 305 309 310 311 311 313 314 316 319 319 323 323 323 327 327 330 327 324 309 276 288 313 313 307 311 308 309 302 276 253 243 241 241 242 239 241 237 238 250 242 245 255 253 280 284 223 215 247 264 268 272 272 279 291 287 275 272 273 267 261 259 253 263 275 262 261 261 259 259 256 253 257 258 250 244 243 244
298 299 300 300 301 302 302 303 302 301 301 301 302 303 304 304 304 305 305 307 310 313 314 317 319 319 323 318 315 300 286 300 319 317 314 310 303 306 300 278 255 245 240 240 241 234 233 231 235 243 250 267 268 275 293 309 237 219 239 266 285 288 284 284 287 286 280 272 265 255 258 260 261 273 276 266 267 268 263 261 259 253 249 250 249 248 246 246
296 296 298 298 299 300 300 301 300 300 300 300 300 301 302 300 300 301 300 302 303 305 308 310 311 314 314 308 299 276 290 302 309 308 307 300 298 300 296 284 262 250 243 242 239 234 235 231 233 243 266 278 270 274 285 274 254 259 276 292 290 287 290 286 282 280 279 274 257 233 255 268 264 259 267 269 271 272 265 261 258 252 246 246 245 247 248 250
296 296 296 297 297 297 297 297 297 297 297 297 298 299 299 299 299 298 298 300 299 301 303 303 307 307 307 300 266 252 288 299 300 301 297 292 292 290 289 283 268 254 246 244 240 239 240 234 236 247 266 273 271 286 288 269 268 298 315 314 290 291 297 284 277 276 274 273 253 227 254 279 264 204 247 263 267 263 264 264 259 249 246 246 244 246 247 250
299 298 299 299 299 298 298 297 296 295 294 294 295 295 296 296 295 295 296 297 297 298 297 299 300 299 302 289 267 272 292 295 294 293 288 288 286 282 283 278 268 257 248 246 242 239 236 235 238 240 249 259 291 311 296 281 298 302 317 313 289 313 303 276 270 268 257 254 244 203 286 282 235 225 247 259 264 262 263 263 260 252 248 245 243 245 247 250
302 302 302 302 302 301 300 299 297 296 295 294 294 294 293 293 293 293 292 292 293 293 292 293 292 294 289 274 277 286 292 290 288 286 283 282 280 277 277 274 268 257 249 246 241 237 231 234 239 242 251 255 268 273 278 299 311 299 289 249 286 334 299 270 264 255 241 235 212 156 284 271 240 241 250 263 267 263 261 258 256 252 249 246 244 245 247 251
303 303 304 304 304 303 303 302 300 299 297 296 296 296 295 294 293 291 290 290 290 288 288 288 286 286 271 271 286 289 286 284 280 279 278 275 274 274 274 272 267 256 248 245 241 236 231 232 238 247 252 248 256 270 289 309 300 285 299 246 266 299 278 271 257 213 215 219 182 155 238 260 260 259 258 267 265 257 254 254 255 249 247 247 245 246 247 250
302 303 303 303 303 303 303 303 302 300 299 298 298 299 298 297 295 293 292 289 286 285 284 282 278 274 261 273 285 284 281 278 274 275 272 270 271 272 272 268 260 251 246 244 241 238 236 234 234 238 247 249 256 271 315 327 291 245 257 281 263 214 261 280 271 199 201 209 168 156 229 257 263 268 268 269 258 249 244 250 255 250 247 245 246 247 247 251
304 304 303 303 302 302 304 304 303 301 298 298 298 299 299 299 297 297 296 290 285 280 277 273 270 263 256 277 281 278 274 269 270 272 266 268 270 267 266 259 249 243 241 240 239 238 234 231 231 231 236 248 220 151 20 342 304 293 197 253 262 232 263 290 289 225 192 172 171 186 219 256 262 268 273 267 253 248 237 245 252 251 250 245 246 247 247 252
310 309 307 306 305 305 306 306 304 300 298 298 298 297 298 298 297 297 296 290 281 270 264 258 259 255 248 266 272 270 270 267 267 266 263 267 264 262 260 247 238 235 233 230 230 223 215 210 208 228 236 229 153 122 63 293 271 289 215 236 253 246 260 268 296 293 164 155 201 219 226 251 256 269 276 261 256 252 231 238 246 248 251 249 248 247 247 251
316 314 313 312 310 310 311 310 305 301 298 298 298 298 298 298 297 295 290 283 271 258 253 227 195 238 253 251 260 267 270 268 261 255 253 253 250 252 247 238 230 218 207 214 222 198 192 203 178 192 270 217 176 140 169 234 236 240 221 229 254 249 254 255 269 229 159 173 209 220 236 251 258 267 267 261 263 259 234 237 243 246 251 253 252 250 251 253
323 321 320 318 317 317 319 315 310 306 304 300 299 300 299 299 295 290 283 268 241 220 243 209 188 208 258 246 245 256 262 257 247 241 244 244 241 236 224 218 211 194 177 180 217 189 179 180 135 166 251 222 203 181 202 227 227 230 235 238 248 251 256 257 263 223 177 196 212 216 233 243 254 258 256 258 260 260 251 244 244 247 251 254 254 253 254 254
331 330 328 327 325 325 326 321 316 315 313 308 307 309 309 310 304 291 273 247 238 245 261 240 220 234 253 255 249 247 247 245 246 245 247 244 233 220 208 199 187 191 189 160 183 190 178 174 172 198 226 224 209 201 215 230 234 245 254 256 253 255 263 259 267 249 185 195 220 219 235 239 249 256 251 252 256 259 257 247 242 245 247 251 253 253 254 255
334 335 335 335 335 336 333 327 324 323 321 318 319 324 327 329 314 291 286 268 262 263 264 263 254 250 256 258 255 255 252 249 252 246 243 236 219 204 200 189 168 199 208 176 166 194 179 190 213 215 227 228 213 208 220 232 237 246 249 257 258 249 263 259 259 257 192 198 242 230 243 248 246 256 257 250 244 247 250 247 245 245 246 250 253 255 256 259
332 333 335 337 340 344 340 335 334 331 330 329 328 333 323 302 286 280 292 286 275 270 265 266 262 255 255 254 254 258 252 248 251 239 229 222 209 203 192 181 185 200 176 168 216 242 204 222 226 222 230 237 232 215 217 229 229 240 243 254 261 246 270 265 245 255 201 191 248 241 246 252 249 255 260 254 236 237 245 248 251 252 250 252 254 257 258 259
326 328 330 333 340 345 343 341 341 339 340 340 341 346 328 302 288 287 295 285 280 277 268 264 259 253 250 246 245 244 236 238 243 234 229 220 205 202 194 181 196 178 142 181 205 218 222 231 225 223 226 233 243 231 222 245 239 236 239 247 258 246 265 266 243 256 226 206 250 259 257 254 256 265 264 255 247 244 247 249 253 256 256 255 256 258 258 259
324 325 325 328 335 341 343 341 343 348 345 342 346 351 340 316 292 302 303 278 276 278 271 267 260 252 248 245 240 232 232 238 239 234 231 220 200 197 203 194 185 177 193 201 204 221 236 229 209 209 214 222 239 237 220 247 252 241 232 232 250 247 245 255 270 304 290 281 279 280 285 269 233 250 258 253 249 247 248 250 252 254 256 257 257 258 259 258
319 320 321 323 327 337 341 338 343 351 347 344 345 339 336 326 291 312 318 291 272 267 269 264 253 249 247 244 235 226 234 243 241 240 233 220 205 196 204 193 185 210 216 209 212 232 246 232 196 193 216 221 230 236 212 214 249 256 227 216 236 244 246 255 282 318 314 295 275 216 279 276 206 222 245 252 248 245 243 241 244 248 252 254 254 256 257 258
313 315 318 317 320 329 335 336 342 348 349 349 344 336 327 320 300 317 329 313 277 243 206 213 219 233 235 232 222 216 248 263 246 242 234 224 216 209 199 183 195 226 207 200 227 239 239 221 192 191 215 214 218 238 214 198 235 268 229 207 224 235 249 257 268 289 262 263 270 142 230 276 247 213 233 237 233 243 241 232 237 242 246 249 249 252 255 258
307 311 313 312 315 320 325 331 336 346 355 349 342 335 317 312 324 339 349 323 277 189 160 183 183 186 199 205 195 189 245 271 234 229 215 213 214 209 215 202 197 220 169 145 255 243 207 199 193 206 215 208 214 237 216 187 215 262 218 190 207 222 240 245 231 226 235 270 282 161 151 280 279 234 203 207 214 235 243 240 242 240 242 244 245 249 253 258
305 308 308 306 308 311 315 322 329 345 354 348 346 334 313 310 359 41 58 290 274 135 142 191 173 191 200 179 183 186 210 78 155 205 195 195 199 199 224 223 189 203 163 158 231 248 179 186 202 204 204 211 219 227 197 168 206 247 180 166 180 197 218 188 183 223 291 338 275 203 144 272 280 245 182 201 209 222 236 236 237 237 237 239 242 249 253 257
296 300 303 301 300 302 308 313 321 337 342 347 349 330 314 155 56 54 101 254 278 118 140 177 173 203 184 163 191 209 232 52 142 192 180 188 194 187 228 230 203 252 243 211 232 257 211 183 192 172 183 220 216 210 171 169 214 224 119 90 73 69 52 79 130 168 35 307 255 194 155 215 278 264 163 185 205 212 226 230 232 232 232 235 242 249 254 257
284 287 295 296 293 293 300 304 307 321 334 347 348 335 125 132 81 57 233 247 303 266 138 157 190 178 149 140 219 230 228 336 70 143 164 188 200 193 87 189 196 260 290 291 264 260 256 84 114 168 193 203 146 91 90 161 207 107 87 51 29 13 22 50 16 73 49 276 236 177 175 190 267 279 147 173 202 201 208 218 231 235 233 238 244 250 255 256
282 282 285 288 289 289 291 293 297 307 324 352 357 79 137 107 79 162 233 252 341 243 118 158 227 131 152 170 234 217 204 243 122 146 179 195 197 199 117 119 128 50 326 302 277 269 263 163 223 216 184 129 98 77 13 22 66 88 86 73 28 329 9 27 354 64 216 263 210 177 184 188 232 263 147 233 223 195 200 202 219 231 236 241 245 251 254 253
278 278 278 280 283 284 282 284 293 296 293 343 13 139 132 52 241 221 241 8 350 218 156 190 195 160 204 238 307 191 165 211 176 167 190 166 169 199 203 203 167 88 290 253 264 287 265 228 207 214 188 158 126 77 356 351 45 102 103 103 83 296 344 356 306 115 224 254 225 187 184 202 239 252 251 270 270 206 204 204 213 219 230 241 243 243 249 250
273 272 271 270 272 276 278 280 283 278 271 277 163 140 97 77 235 226 213 242 246 209 148 182 177 165 162 86 278 210 182 232 184 176 199 157 183 239 264 251 199 209 250 221 263 295 284 273 180 154 261 185 160 166 226 270 176 161 145 142 169 208 232 264 254 256 258 261 258 196 177 243 273 268 226 238 244 225 210 212 220 219 226 244 243 233 238 245
273 269 266 266 266 268 270 274 274 268 256 215 157 115 100 212 245 298 163 217 255 280 328 47 133 171 165 193 227 186 185 246 173 163 193 142 174 244 253 246 220 225 233 186 268 189 249 291 191 167 219 179 177 206 207 162 152 183 154 146 183 176 172 218 232 239 265 283 277 183 166 226 270 255 215 221 238 234 219 219 223 225 232 248 248 236 236 241
275 270 264 264 262 260 261 263 265 263 235 184 138 104 178 219 251 284 223 240 273 293 301 338 92 183 239 247 243 202 208 244 160 150 184 174 195 214 202 214 205 191 154 193 252 173 216 273 218 173 158 161 181 218 191 121 105 214 122 120 219 196 183 228 254 222 202 303 283 202 206 233 231 253 240 229 253 245 224 223 224 229 237 245 248 241 239 239
280 275 269 262 257 256 256 254 257 254 219 171 126 194 213 223 215 186 221 223 217 324 323 319 248 186 259 273 269 238 208 227 195 162 203 202 209 211 194 201 195 190 189 196 228 188 223 280 234 154 43 148 181 248 161 151 203 187 134 184 208 159 169 227 281 282 127 268 270 212 234 276 308 278 252 224 242 244 232 230 225 230 235 239 242 237 235 234
279 279 274 265 261 262 257 252 254 241 208 173 164 219 216 231 207 199 237 223 213 340 350 313 252 201 252 250 248 244 207 220 201 171 211 214 219 211 202 216 192 189 206 212 224 224 224 275 254 160 236 285 355 16 349 267 144 132 180 209 162 72 122 171 232 320 296 252 264 240 249 278 291 279 302 65 237 247 247 235 225 229 232 237 240 234 232 233
275 279 277 272 271 269 258 254 245 224 194 172 218 224 218 226 197 205 233 248 269 276 256 261 244 217 247 266 272 246 201 217 180 174 218 220 230 196 179 220 200 192 210 214 227 275 218 253 268 158 185 300 22 49 300 327 92 133 215 203 112 142 221 159 170 229 245 246 266 272 272 273 257 257 292 295 231 226 229 226 225 230 231 237 240 236 236 235
273 276 278 277 276 268 259 248 227 204 180 173 225 222 224 224 208 215 226 230 240 241 237 241 235 231 248 258 267 252 195 212 188 212 234 217 241 197 164 211 216 205 212 205 206 245 208 229 253 212 181 261 24 196 201 225 284 36 357 339 30 176 184 182 175 170 221 242 261 277 283 277 249 228 225 231 229 221 219 224 229 231 230 234 236 236 237 233
269 266 269 267 262 267 244 224 205 189 178 216 215 221 238 241 241 234 230 226 206 205 226 229 228 239 250 257 265 260 229 221 204 225 228 221 258 239 185 211 227 224 216 204 213 232 206 242 238 241 15 213 216 205 182 186 200 182 210 247 259 213 148 236 237 160 204 230 237 252 269 268 248 183 196 217 224 217 206 211 225 231 234 235 235 238 238 234
256 249 257 251 252 243 207 195 188 185 214 233 221 236 239 247 268 238 238 242 232 235 252 240 228 244 260 268 270 273 272 260 257 254 242 252 260 257 353 19 9 332 246 192 231 227 188 242 234 207 201 228 236 218 186 191 191 180 194 208 209 203 181 237 243 219 205 222 221 222 250 262 246 152 190 210 207 214 203 201 217 227 231 236 238 240 240 237
228 235 251 246 246 215 192 182 186 199 208 222 234 243 227 238 253 236 248 252 241 243 267 281 247 244 255 256 255 269 283 272 266 255 243 255 256 262 321 352 2 4 2 304 249 240 200 199 238 236 226 244 265 250 192 208 206 192 208 215 211 203 197 222 235 231 232 240 233 229 246 258 248 147 186 213 191 211 209 196 212 230 230 233 237 240 243 244
225 238 247 252 246 209 189 181 226 203 207 247 243 246 229 226 239 236 242 237 228 226 227 227 222 225 236 239 241 255 256 246 243 240 247 258 260 263 277 291 308 345 9 329 319 325 337 76 243 253 265 295 301 319 339 216 199 231 262 242 225 222 222 234 240 243 243 221 213 232 244 254 258 189 254 267 228 219 221 212 219 234 235 235 235 237 248 254
241 252 251 255 253 221 198 184 224 209 231 246 244 249 239 234 242 245 239 212 207 214 225 229 219 221 229 223 226 229 223 235 238 231 236 240 247 255 262 271 277 285 99 220 352 360 325 296 271 263 263 286 297 297 288 276 139 206 241 234 236 241 244 253 268 268 249 232 226 238 245 252 262 259 270 287 280 258 253 240 236 240 244 246 244 242 250 255
258 265 254 243 233 222 216 219 226 225 223 230 240 241 239 244 230 233 239 235 223 216 222 235 219 222 229 217 230 229 216 228 238 224 219 215 243 256 253 253 255 247 231 216 193 163 293 253 279 264 243 243 246 251 250 229 177 195 226 233 238 237 235 243 253 244 242 237 235 244 252 257 276 292 286 282 283 283 284 278 274 273 274 277 276 271 269 267
270 270 254 232 216 216 224 232 236 239 221 223 236 230 232 242 235 230 234 240 236 229 232 247 227 231 234 220 239 248 235 234 234 224 223 223 234 250 244 246 246 243 245 232 212 206 160 187 221 232 233 239 244 249 251 224 213 233 234 238 241 240 240 245 249 246 253 258 246 247 260 268 282 295 289 285 285 280 276 278 278 274 273 275 275 274 272 268
264 263 258 235 211 217 227 232 233 240 243 233 225 204 224 233 241 231 221 223 231 226 228 239 221 220 231 225 236 247 243 240 237 235 241 238 241 253 251 255 254 247 251 234 207 201 156 212 226 230 235 239 246 254 263 269 261 253 251 253 254 250 242 238 241 246 258 269 257 253 269 278 279 281 283 285 285 279 275 272 269 266 265 266 267 268 265 262
244 269 281 326 316 232 235 240 259 302 326 290 259 243 245 240 237 228 218 228 231 212 204 238 222 219 228 232 239 248 246 248 244 240 243 242 244 260 261 258 252 245 242 203 182 180 184 230 226 231 238 237 240 249 254 260 259 255 256 258 258 254 246 242 244 245 243 249 256 259 261 264 263 261 265 270 273 276 277 276 275 274 270 266 263 261 260 263
258 282 296 314 316 278 285 310 326 319 314 320 288 241 261 262 257 265 273 268 248 211 209 232 228 223 226 227 233 241 239 243 244 236 235 236 231 238 254 255 248 239 228 214 200 182 194 230 219 231 242 238 236 240 243 247 250 252 251 249 251 255 253 249 248 248 248 251 256 257 254 252 252 252 253 255 260 268 278 281 280 277 273 270 267 263 263 266
259 269 303 324 304 286 292 302 321 321 306 309 282 236 250 270 278 299 305 283 288 263 224 244 259 262 258 251 246 243 241 247 255 257 259 254 234 223 239 251 257 242 210 217 226 191 199 216 208 224 245 238 233 236 234 235 239 243 246 245 247 250 251 252 252 251 253 255 252 251 252 254 252 250 252 256 262 269 275 277 275 273 273 273 270 267 266 266
253 258 286 313 296 275 285 294 330 329 293 272 261 277 293 288 310 336 322 278 268 265 264 308 321 327 322 307 283 275 292 299 294 299 307 302 288 282 273 257 267 292 199 209 228 193 205 223 205 217 245 233 227 232 232 232 235 237 241 246 246 245 245 246 246 244 244 249 252 251 250 252 249 248 251 256 260 263 263 264 267 269 271 272 271 270 271 270
255 255 264 281 273 256 267 304 334 288 269 265 282 313 312 306 323 337 322 300 300 308 325 344 345 334 321 316 316 321 322 316 306 303 302 293 284 281 278 270 263 259 229 204 236 202 201 228 221 222 246 238 227 232 234 233 236 233 229 233 237 241 243 243 243 244 242 242 248 249 246 248 248 248 251 251 251 252 253 254 257 262 268 272 275 275 274 272